Погода в Аральске

Хотите узнать прогноз погоды в Аральске? Тогда Вам сюда: Погода в Аральске

Поиск расширенной информации на нашем сайте:

Полезная информация:

Новости сайта



02.01.2020
Опубликован Долгосрочный прогноз погоды по городам России и ближнего зарубежья на январь 2020 года.
Карты: Прогноз на январь и февраль 2020 года, Сравнение прогнозируемой аномалии приземной температуры воздуха на январь 2020 года по разным моделям.




Погода в Аральске - сегодня

Время (UTC), дата Ветер
(°,м/с) 
Видим.   Явления Облачность Т
(°С)
Тd
(°С)
f(%) Тe
(°С)
Pmin
(гПа)
dP
(гПа)
Po
(мм)
O2
(г/м3)
Тmin Tmax R s Состояние
почвы
12 22.10.21 220 (ЮЗ) 20000 м  в посл. час ливневой дождь  10/4 600 м кучево-дожд., средняя 
[Cb calv|Ac As]
+8.3 +2.7 68 +6  1026.9  0.3  765  299           
15 22.10.21 190 (Ю) н/о    8/0 средняя, верхняя 
[Ac und|Ci sp]
+7.3 -0.5 58 +5  1027.5  0.6  766  301    +8.5     
18 22.10.21 200 (Ю) н/о    8/0 средняя, верхняя 
[Ac und|Ci sp]
+6.8 -0.8 58 +5  1027.6  766  301    +8.5     
21 22.10.21 200 (Ю) н/о    4/0 средняя, верхняя 
[Ac und|Ci sp]
+4.6 -2.1 62 +3  1028.5  0.9  766  304           
00 23.10.21 220 (ЮЗ) н/о    4/0 средняя, верхняя 
[Ac und|Ci sp]
+4 -1.9 65 +1  1028.2  -0.3  766  304           
03 23.10.21 210 (ЮЗ) 20000 м    8/0 средняя, верхняя 
[Ac und|Ci sp]
+3 -2.8 66 1028.9  0.7  767  306           
06 23.10.21 210 (ЮЗ) 20000 м    9/0 средняя, верхняя 
[Ac und|Ci sp]
+9 -0.7 51 +6  1029.7  0.9  767  299  +2.7         
09 23.10.21 210 (ЮЗ) 20000 м    1/0 средняя 
[Ac und]
+14.6 -0.9 34 +13  1028.7  -0.8  767  293           
12 23.10.21 220 (ЮЗ) 20000 м    ясно 
+14.7 -4.7 26 +14  1028.4  -0.3  767  294           
15 23.10.21 170 (Ю) н/о    ясно 
+9.2 -2.5 44 +9  1028.9  0.3  767  299    +15.3       
18 23.10.21 140 (ЮВ) н/о    ясно 
+6.1 -4.7 46 +6  1028.4  -0.6  766  303    +15.3       
21 23.10.21 120 (ЮВ) н/о    ясно 
+4 -4.7 53 +5  1028.2  -0.2  766  305           
00 24.10.21 140 (ЮВ) н/о    ясно 
+2.5 -4.9 58 +2  1027.6  -0.6  766  306           
03 24.10.21 050 (СВ) 20000 м    ясно 
+0.9 -4.8 66 1027.5  -0.2  766  308           
06 24.10.21 160 (Ю) 20000 м    ясно 
+10.8 -6.4 29 +10  1026.3  -1  765  297  +0.4         
09 24.10.21 180 (Ю) 20000 м    3/0 верхняя 
[Ci fib]
+15.6 -7.8 19 +16  1024  -2.1  763  292           
12 24.10.21 140 (ЮВ) 20000 м    1/0 верхняя 
[Ci fib]
+15.9 -6.4 21 +16  1022.4  -1.6  762  291           
15 24.10.21 080 (В) н/о    1/0 верхняя 
[Ci fib]
+10.2 -3.6 38 +10  1021.9  -0.7  761  296    +16.4       
18 24.10.21 080 (В) н/о    4/0 верхняя 
[Ci fib]
+7.3 -2.7 49 +7  1020.1  -1.7  760  299    +16.4       
21 24.10.21 100 (В) н/о    4/0 верхняя 
[Ci fib]
+6.4 -2 55 +6  1018.9  -1.3  759  299           
00 25.10.21 010 (С) н/о    8/0 верхняя 
[Ci fib]
+5 -2.2 60 +4  1017.9  -1  758  300           
03 25.10.21 070 (В) 20000 м    9/0 верхняя 
[Ci fib]
+4.1 -2.4 63 +3  1017.1  -0.8  758  301           
06 25.10.21 120 (ЮВ) 20000 м    9/0 верхняя 
[Ci sp]
+10.9 -2.5 39 +11  1016.6  -0.4  758  294  +3.6         
09 25.10.21 080 (В) 20000 м    9/0 верхняя 
[Ci sp]
+16.4 -2.2 28 +17  1014.2  -2.3  756  288           
12 25.10.21 130 (ЮВ) 20000 м    9/0 верхняя 
[Ci sp]
+17.1 -1.9 27 +18  1013  -1.1  755  287           
Время (UTC), дата Ветер
(°,м/с) 
Видим.   Явления Облачность Т
(°С)
Тd
(°С)
f(%) Тe
(°С)
Pmin
(гПа)
dP
(гПа)
Po
(мм)
O2
(г/м3)
Тmin Tmax R s Состояние
почвы

Для получения пояснительной информации подведите курсор к названию столбца.

ПОГОДА в Аральске - архив

Всё, что Вы хотите узнать о погоде в Аральске - удобно и подробно!

Выберите нужную дату (начиная с 1 января 2019* года) и нажмите кнопку "Найти".
Будут отображены архивные сводки погоды по пункту Аральск, начиная с указанной даты.


Отображать данные в формате CSV (для использования в таблицах Excel)


Внимание! Наш архив погоды предназначен исключительно для личного некоммерческого использования в познавательных целях. Если Вам необходимы официальные справки о состоянии погоды (для производственных, юридических, коммерческих и т.п. целей), обращайтесь в органы Росгидромета.

*Примечание: данная дата относится к архиву по метеостанциям СССР (Россия, СНГ, Балтия).
Архив по метеостанциям Зарубежной Европы и Азии (кроме Китая) хранится 10 дней, по другим регионам земного шара (Китай, Африка, Америка, Австралия, Океания) - 1 день.

Аральск - район местоположения метеостанции


Название, широта, долгота, высота метеостанции:
Аральск 46.8°ш. 61.6°д. 62 м над ур. моря [Казахстан]

Дополнительная информация

В oтличие oт бoльшинства пoгoдных сайтoв мы публикуем пoдрoбную метеoинфoрмацию в детальнoм прoфессиoнальнoм фoрмате.

Характеристики температуры и влажнoсти вoздуха измеряются на высoте 2 м в тени вдали oт зданий и деревьев.
Скoрoсть ветра измеряется на высoте 10 м (на урoвне рoста челoвека скoрoсть ветра ниже в 1.5-2 раза). Если метеoстанция нахoдится в гoрoде или в лесу, тo скoрoсть ветра занижена на 2-4 м/с пo сравнению с oткрытым местoм. Скoрoсть ветра над акватoриями крупных рек и oзёр, а также на вершинах хoлмoв на 2-5 м/с выше, чем в oбычных услoвиях.
Атмoсфернoе давление в разных тoчках местнoсти мoжет значительнo oтличаться oт давления на метеoстанции, в зависимoсти oт услoвий рельефа (при пoдъёме на 10 м давление пoнижается примернo на 1 мм рт.ст.).